SCP
0 0 0 0 0 0 0 0 0 0 0 0 0 0 0 0 0 0 0 0 0 0 0 0 0 0 0 0 0 0 0 0 0 0 0 0 0 0 0 0 0 0 0 0 0
0 0 0 0 0 0 0 0 0 0 0 0 0 0 0 0 0 0 0 0 0 0 0 0 0 0 0 0 0 0 0 0 0 0 0 0 0 0 0 0 0 0 0 0 0
0 0 0 0 0 0 0 0 0 0 0 0 0 0 0 0 0 0 0 0 0 0 0 0 0 0 0 0 0 0 0 0 0 0 0 0 0 0 0 0 0 0 0 0 0
0 0 0 0 0 0 0 0 0 0 0 0 0 0 0 0 0 0 0 0 0 0 0 0 0 0 0 0 0 0 0 0 0 0 0 0 0 0 0 0 0 0 0 0 0
0 0 0 0 0 0 0 0 0 0 0 0 0 0 0 0 0 0 0 0 0 0 0 0 0 0 0 0 0 0 0 0 0 0 0 0 0 0 0 0 0 0 0 0 0
0 0 0 0 0 0 0 0 0 0 0 0 0 0 0 0 0 0 0 0 0 0 0 0 0 0 0 0 0 0 0 0 0 0 0 0 0 0 0 0 0 0 0 0 0
0 0 0 0 0 0 0 0 0 0 0 0 0 0 0 0 0 0 0 0 0 0 0 0 0 0 0 0 0 0 0 0 0 0 0 0 0 0 0 0 0 0 0 0 0
0 0 0 0 0 0 0 0 0 0 0 0 0 0 0 0 0 0 0 0 0 0 0 0 0 0 0 0 0 0 0 0 0 0 0 0 0 0 0 0 0 0 0 0 0
0 0 0 0 0 0 0 0 0 0 0 0 0 0 0 0 0 0 0 0 0 0 0 0 0 0 0 0 0 0 0 0 0 0 0 0 0 0 0 0 0 0 0 0 0
0 0 0 0 0 0 0 0 0 0 0 0 0 0 0 0 0 0 0 0 0 0 0 0 0 0 0 0 0 0 0 0 0 0 0 0 0 0 0 0 0 0 0 0 0
0 0 0 0 0 0 0 0 0 0 0 0 0 0 0 0 0 0 0 0 0 0 0 0 0 0 0 0 0 0 0 0 0 0 0 0 0 0 0 0 0 0 0 0 0
0 0 0 0 0 0 0 0 0 0 0 0 0 0 0 0 0 0 0 0 0 0 0 0 0 0 0 0 0 0 0 0 0 0 0 0 0 0 0 0 0 0 0 0 0
0 0 0 0 0 0 0 0 0 0 0 0 0 0 0 0 0 0 0 0 0 0 0 0 0 0 0 0 0 0 0 0 0 0 0 0 0 0 0 0 0 0 0 0 0
0 0 0 0 0 0 0 0 0 0 0 0 0 0 0 0 0 0 0 0 0 0 0 0 0 0 0 0 0 0 0 0 0 0 0 0 0 0 0 -0 0 0 0 0 0
0 0 0 0 0 0 0 0 0 0 0 0 0 0 0 0 0 0 0 0 0 0 0 0 0 0 0 0 0 0 0 0 0 0 0 0 0 0 0 0 0 0 0 0 0
0 0 0 0 0 0 0 0 0 0 0 0 0 0 0 0 0 0 0 0 0 0 0 0 0 0 0 0 0 0 0 0 0 0 0 0 0 0 0 0 0 0 0 0 0
0 0 0 0 0 0 0 0 0 0 0 0 0 0 0 0 0 0 0 0 0 0 0 0 0 0 0 0 0 0 0 0 0 0 0 0 0 0 0 0 0 0 0 0 0
0 0 0 0 0 0 0 0 0 0 0 0 0 0 0 0 0 0 0 0 0 0 0 0 0 0 0 0 0 0 0 0 0 0 0 0 0 0 0 0 0 0 0 0 0
0 0 0 0 0 0 0 0 0 0 0 0 0 0 0 0 0 0 0 0 0 0 0 0 0 0 0 0 0 0 0 0 0 0 0 0 0 0 0 0 0 0 0 0 0
0 0 0 0 0 0 0 0 0 0 0 0 0 0 0 0 0 0 0 0 0 0 0 0 0 0 0 0 0 0 0 0 0 0 0 0 0 0 0 0 0 0 0 0 0
0 0 0 0 0 0 0 0 0 0 0 0 0 0 0 0 0 0 0 0 0 0 0 0 0 0 0 0 0 0 0 0 0 0 0 0 0 0 0 0 0 0 0 0 0
0 0 0 0 0 0 0 0 0 0 0 0 0 0 0 0 0 0 0 0 0 0 0 0 0 0 0 0 0 0 0 0 0 0 0 0 0 0 0 0 0 0 0 0 0
0 0 0 0 0 0 0 0 0 0 0 0 0 0 0 0 0 0 0 0 0 0 0 0 0 0 0 0 0 0 0 0 0 0 0 0 0 0 0 0 0 0 0 0 0
0 0 0 0 0 0 0 0 0 0 0 0 0 0 0 0 0 0 0 0 0 0 0 0 0 0 0 0 0 0 0 0 0 0 0 0 0 0 0 0 0 0 0 0 0
0 0 0 0 0 0 0 0 0 0 0 0 0 0 0 0 0 0 0 0 0 0 0 0 0 0 0 0 0 0 0 0 0 0 0 0 0 0 0 0 0 0 0 0 0
0 0 0 0 0 0 0 0 0 0 0 0 0 0 0 0 0 0 0 0 0 0 0 0 0 0 0 0 0 0 0 0 0 0 0 0 0 0 0 0 0 0 0 0 0
0 0 0 0 0 0 0 0 0 0 0 0 0 0 0 0 0 0 0 0 0 0 0 0 0 0 0 0 0 0 0 0 0 0 0 0 0 0 0 0 0 0 0 0 0
Wind_Speed_500mb
46 42 35 32 28 27 25 27 30 31 31 31 29 28 26 25 25 25 25 24 21 24 24 21 16 15 9 9 10 5 8 3 5 8 4 8 7 8 3 6 2 5 12 16 21
45 46 43 34 28 28 24 21 21 23 26 28 28 27 26 25 26 31 26 25 30 28 20 17 11 6 2 4 5 9 7 13 5 5 3 4 8 6 4 15 2 4 14 18 24
44 42 44 40 35 28 25 24 20 16 19 23 22 22 22 20 21 13 19 34 37 29 27 17 6 1 5 4 4 6 10 6 3 4 1 3 7 4 3 5 5 14 23 27 29
54 45 43 39 38 35 28 25 24 16 16 17 17 17 17 14 9 9 4 18 19 31 28 19 8 8 5 5 5 7 3 9 2 1 8 6 4 12 17 20 23 24 30 31 35
55 53 54 51 47 39 35 32 24 23 21 17 14 13 15 14 16 12 2 6 4 21 29 23 15 11 10 7 5 5 1 1 8 17 17 14 12 20 21 34 32 28 28 38 42
52 48 46 51 53 49 41 36 31 25 24 22 18 17 19 14 17 26 11 8 6 18 27 22 14 14 12 7 6 5 1 9 13 14 17 8 9 11 2 25 29 29 30 35 35
49 43 45 43 45 46 45 41 36 29 25 24 23 23 22 29 13 14 27 11 9 14 22 23 15 12 17 8 5 4 3 10 14 6 9 5 8 16 34 24 25 28 28 34 34
49 43 41 40 37 38 41 38 37 33 27 25 24 23 17 23 36 20 25 25 13 9 13 15 20 12 8 15 7 7 6 2 7 2 2 13 10 23 13 15 34 38 48 44 38
54 53 44 40 36 40 38 31 30 30 29 27 23 18 12 13 28 29 24 27 24 17 13 9 17 10 11 10 4 2 4 4 14 3 3 7 6 8 21 49 48 53 53 53 52
58 55 55 42 40 39 36 35 33 28 28 23 18 9 28 14 22 24 39 17 15 26 15 10 6 6 5 8 11 11 9 7 8 8 5 11 14 27 41 45 57 63 63 63 61
49 48 53 52 46 43 42 38 21 11 35 19 12 10 1 17 9 15 34 30 14 24 11 14 7 19 22 10 7 9 5 10 4 10 6 14 19 17 47 48 48 63 70 70 71
54 52 46 55 52 48 45 41 40 9 12 50 19 30 32 3 6 13 31 29 13 6 18 8 20 13 14 9 10 10 12 8 6 2 4 14 32 33 51 53 52 61 67 62 58
55 54 56 48 54 49 51 44 32 19 6 8 60 43 15 29 6 24 40 26 12 13 18 12 9 21 16 9 13 6 9 4 12 9 8 13 19 6 5 19 35 41 45 50 51
57 55 62 53 56 60 53 46 33 15 6 9 16 33 44 18 14 26 35 32 7 21 15 16 22 10 8 14 12 11 11 6 6 3 13 5 15 9 11 14 13 40 29 16 20
61 56 65 71 48 69 59 51 35 20 1 6 11 7 32 31 23 24 42 35 14 11 10 10 11 17 10 10 14 6 10 12 8 6 4 9 7 9 8 11 19 12 12 15 13
62 58 69 74 53 67 56 56 40 7 17 4 11 20 23 41 9 18 15 15 17 10 1 5 3 10 14 8 13 16 9 6 5 4 15 20 15 8 10 14 7 8 4 8 14
61 65 71 77 62 67 63 56 9 11 5 11 12 17 31 18 20 16 18 15 15 12 19 6 7 5 8 9 4 10 13 3 6 9 13 4 17 28 11 17 12 13 14 20 25
71 66 68 73 62 65 75 13 13 10 12 4 14 20 25 16 29 15 21 20 17 7 6 17 6 24 14 16 13 19 18 8 12 9 5 5 14 11 16 11 13 17 30 33 32
62 60 61 69 69 75 59 22 24 13 20 18 20 25 9 12 12 23 20 25 23 14 13 10 9 2 6 8 22 10 19 7 3 4 0 10 13 15 11 8 16 32 35 31 31
54 59 62 70 69 83 21 24 13 11 14 14 13 14 16 30 13 29 17 10 15 34 11 4 3 1 4 4 4 12 15 8 7 9 9 8 13 19 9 10 12 21 36 34 32
56 29 52 74 69 50 19 14 9 15 17 13 13 11 11 18 19 18 12 5 15 22 40 8 5 5 5 16 25 8 11 8 6 9 9 6 14 12 19 14 22 28 45 44 38
39 8 54 73 28 9 20 14 16 13 9 6 9 9 14 16 12 14 19 11 22 24 27 28 10 15 22 7 13 22 18 22 12 11 12 4 28 3 11 10 34 44 50 43 37
18 13 62 83 18 11 8 10 11 10 10 7 7 5 5 13 7 11 12 17 23 23 19 17 8 19 10 4 3 17 16 25 25 2 40 12 25 2 4 9 27 44 52 46 37
25 8 20 46 40 17 11 11 9 5 9 9 9 9 10 7 1 12 11 11 26 26 38 28 11 16 27 8 9 14 19 34 37 23 33 38 34 15 10 13 24 41 55 48 40
17 5 14 14 27 15 4 22 25 9 7 14 4 10 13 7 7 9 8 5 5 16 25 16 31 22 36 25 4 9 20 41 42 51 33 52 41 42 21 28 50 56 59 52 43
25 10 11 16 58 29 27 10 33 11 15 8 12 16 12 14 15 12 10 10 13 6 8 6 37 15 38 29 19 34 45 32 41 50 49 51 56 25 25 38 43 59 70 63 53
20 27 13 41 30 29 11 14 16 23 7 15 15 11 11 24 35 43 41 23 9 15 11 10 4 10 38 10 15 30 46 43 43 36 35 42 58 13 13 33 54 65 74 67 59
Wind_Direction_500mb
232 231 233 228 227 228 231 238 238 236 238 241 246 252 257 262 263 262 261 254 246 251 264 276 293 297 347 58 71 78 68 137 218 163 192 19 69 41 14 1 56 57 38 5 358
231 225 225 227 228 230 228 233 240 241 242 243 244 248 254 262 269 266 257 249 248 247 258 271 287 304 132 58 72 87 105 208 216 183 163 31 50 355 350 342 30 106 17 353 340
226 221 225 226 229 230 230 230 232 239 247 247 246 248 250 259 285 258 245 244 242 240 245 254 260 94 119 67 58 108 157 200 246 258 260 119 334 333 356 320 313 322 324 327 328
222 221 225 228 229 230 230 234 230 228 240 248 248 245 241 231 218 166 282 287 252 229 222 226 198 141 110 109 87 101 150 160 214 317 327 321 312 289 250 265 299 303 306 306 312
218 223 228 233 236 234 234 233 234 232 232 237 239 237 218 216 232 189 42 25 203 208 209 203 176 146 140 110 82 107 216 160 259 282 294 283 274 267 259 284 290 290 293 296 297
219 222 225 231 235 234 230 229 225 224 226 230 225 226 214 228 237 216 189 47 107 174 184 183 182 154 120 114 129 140 357 312 286 282 292 262 272 277 68 305 299 299 304 307 302
217 220 226 226 227 223 223 222 220 216 217 230 225 218 217 248 244 233 209 210 115 151 187 181 141 157 139 125 147 94 5 315 263 252 251 241 277 245 284 296 309 312 315 313 297
220 220 222 218 216 207 203 204 211 212 215 225 225 216 233 257 244 240 215 212 196 164 160 189 199 156 129 125 74 93 50 16 292 335 237 157 269 269 266 357 330 321 315 309 302
224 222 213 210 201 197 190 192 205 207 210 221 210 196 252 256 246 234 214 215 214 193 168 164 175 166 167 110 67 256 205 197 315 304 236 172 250 280 307 316 314 309 308 301 297
222 214 207 201 196 196 192 197 200 200 203 212 214 193 241 235 239 228 208 194 188 193 183 166 163 130 121 151 202 191 189 186 225 304 344 280 248 266 288 291 293 295 292 290 287
210 203 202 197 190 184 184 173 164 189 194 185 196 182 256 237 246 212 206 188 165 166 155 185 179 210 208 209 204 104 152 184 226 265 299 257 275 269 283 283 275 280 282 282 285
205 205 200 193 191 192 194 182 187 164 187 216 196 218 237 181 198 204 192 184 196 172 127 153 226 207 195 196 212 253 252 249 282 339 276 298 292 281 262 261 257 266 279 282 291
207 207 202 196 185 192 193 191 175 135 114 219 226 229 247 224 255 208 184 182 174 211 196 195 168 192 173 184 192 208 204 234 247 330 290 325 286 238 281 250 262 268 272 287 298
209 205 199 194 185 188 188 183 177 168 45 235 196 221 215 180 239 220 194 185 207 198 193 236 227 130 152 194 157 208 196 183 112 354 280 33 292 281 248 260 269 284 319 336 333
210 199 191 195 183 182 184 169 155 170 110 211 165 199 190 176 149 182 187 190 167 176 163 216 181 177 177 192 169 238 147 154 169 208 316 202 261 277 151 269 289 348 32 17 11
200 191 184 189 193 192 178 165 156 98 227 180 136 170 160 190 145 144 165 176 186 156 286 206 183 163 192 170 165 154 99 86 98 175 255 212 186 225 196 193 236 139 95 121 131
194 192 187 188 187 182 169 159 159 197 290 189 174 171 181 170 177 161 171 179 166 177 221 147 196 182 162 105 47 171 137 220 237 206 239 312 200 246 260 266 226 233 171 152 143
196 186 192 193 187 178 169 168 212 182 195 236 162 151 184 152 201 175 167 199 228 133 139 195 274 173 184 179 174 187 185 182 206 202 257 79 229 247 220 233 219 229 170 155 148
183 187 191 190 183 179 163 196 207 173 155 145 136 169 181 204 164 187 198 213 200 179 180 169 239 71 232 156 158 171 210 163 24 55 338 229 278 282 251 107 122 135 149 145 143
188 181 195 188 183 178 184 201 203 174 139 130 147 172 169 181 161 187 177 223 213 198 213 149 312 272 223 141 223 164 142 154 191 183 246 270 268 234 258 182 153 149 156 155 151
195 174 196 187 184 187 192 203 189 191 157 144 164 151 173 170 167 187 196 312 217 193 196 137 202 234 145 205 190 172 201 225 153 147 185 257 255 218 229 191 186 178 175 167 160
178 156 177 181 187 158 203 162 158 159 179 134 112 116 157 157 152 182 203 199 212 169 193 198 213 226 215 231 189 217 210 193 200 188 233 204 259 3 238 215 180 180 179 170 166
178 116 176 183 186 200 136 132 174 151 162 131 107 138 173 147 151 187 176 213 170 163 180 174 228 246 251 285 261 221 206 216 226 109 236 214 257 315 90 142 181 169 177 174 167
156 149 179 184 204 186 158 163 137 85 123 112 116 104 106 137 330 176 215 207 203 193 203 205 211 215 236 208 150 204 202 208 210 231 249 236 261 232 203 191 188 179 181 176 178
168 174 159 188 187 186 119 172 179 141 79 145 41 159 149 113 104 165 158 155 160 216 225 221 245 236 253 259 241 235 215 217 219 231 226 251 241 254 220 205 201 191 183 183 185
179 156 152 216 183 181 176 176 179 140 142 216 148 169 161 169 171 175 159 188 208 172 206 223 255 258 261 253 250 255 246 238 227 233 238 252 257 258 272 203 182 190 187 190 193
182 172 89 178 164 172 159 156 168 137 210 180 164 127 187 212 200 216 219 224 232 213 205 201 249 205 255 267 247 250 246 234 234 236 232 239 246 195 206 194 195 193 192 193 195
Wind_Speed_850mb
46 42 35 32 28 27 25 27 30 31 31 31 29 28 26 25 25 25 25 24 21 24 24 21 16 15 9 9 10 5 8 3 5 8 4 8 7 8 3 6 2 5 12 16 21
45 46 43 34 28 28 24 21 21 23 26 28 28 27 26 25 26 31 26 25 30 28 20 17 11 6 2 4 5 9 7 13 5 5 3 4 8 6 4 15 2 4 14 18 24
44 42 44 40 35 28 25 24 20 16 19 23 22 22 22 20 21 13 19 34 37 29 27 17 6 1 5 4 4 6 10 6 3 4 1 3 7 4 3 5 5 14 23 27 29
54 45 43 39 38 35 28 25 24 16 16 17 17 17 17 14 9 9 4 18 19 31 28 19 8 8 5 5 5 7 3 9 2 1 8 6 4 12 17 20 23 24 30 31 35
55 53 54 51 47 39 35 32 24 23 21 17 14 13 15 14 16 12 2 6 4 21 29 23 15 11 10 7 5 5 1 1 8 17 17 14 12 20 21 34 32 28 28 38 42
52 48 46 51 53 49 41 36 31 25 24 22 18 17 19 14 17 26 11 8 6 18 27 22 14 14 12 7 6 5 1 9 13 14 17 8 9 11 2 25 29 29 30 35 35
49 43 45 43 45 46 45 41 36 29 25 24 23 23 22 29 13 14 27 11 9 14 22 23 15 12 17 8 5 4 3 10 14 6 9 5 8 16 34 24 25 28 28 34 34
49 43 41 40 37 38 41 38 37 33 27 25 24 23 17 23 36 20 25 25 13 9 13 15 20 12 8 15 7 7 6 2 7 2 2 13 10 23 13 15 34 38 48 44 38
54 53 44 40 36 40 38 31 30 30 29 27 23 18 12 13 28 29 24 27 24 17 13 9 17 10 11 10 4 2 4 4 14 3 3 7 6 8 21 49 48 53 53 53 52
58 55 55 42 40 39 36 35 33 28 28 23 18 9 28 14 22 24 39 17 15 26 15 10 6 6 5 8 11 11 9 7 8 8 5 11 14 27 41 45 57 63 63 63 61
49 48 53 52 46 43 42 38 21 11 35 19 12 10 1 17 9 15 34 30 14 24 11 14 7 19 22 10 7 9 5 10 4 10 6 14 19 17 47 48 48 63 70 70 71
54 52 46 55 52 48 45 41 40 9 12 50 19 30 32 3 6 13 31 29 13 6 18 8 20 13 14 9 10 10 12 8 6 2 4 14 32 33 51 53 52 61 67 62 58
55 54 56 48 54 49 51 44 32 19 6 8 60 43 15 29 6 24 40 26 12 13 18 12 9 21 16 9 13 6 9 4 12 9 8 13 19 6 5 19 35 41 45 50 51
57 55 62 53 56 60 53 46 33 15 6 9 16 33 44 18 14 26 35 32 7 21 15 16 22 10 8 14 12 11 11 6 6 3 13 5 15 9 11 14 13 40 29 16 20
61 56 65 71 48 69 59 51 35 20 1 6 11 7 32 31 23 24 42 35 14 11 10 10 11 17 10 10 14 6 10 12 8 6 4 9 7 9 8 11 19 12 12 15 13
62 58 69 74 53 67 56 56 40 7 17 4 11 20 23 41 9 18 15 15 17 10 1 5 3 10 14 8 13 16 9 6 5 4 15 20 15 8 10 14 7 8 4 8 14
61 65 71 77 62 67 63 56 9 11 5 11 12 17 31 18 20 16 18 15 15 12 19 6 7 5 8 9 4 10 13 3 6 9 13 4 17 28 11 17 12 13 14 20 25
71 66 68 73 62 65 75 13 13 10 12 4 14 20 25 16 29 15 21 20 17 7 6 17 6 24 14 16 13 19 18 8 12 9 5 5 14 11 16 11 13 17 30 33 32
62 60 61 69 69 75 59 22 24 13 20 18 20 25 9 12 12 23 20 25 23 14 13 10 9 2 6 8 22 10 19 7 3 4 0 10 13 15 11 8 16 32 35 31 31
54 59 62 70 69 83 21 24 13 11 14 14 13 14 16 30 13 29 17 10 15 34 11 4 3 1 4 4 4 12 15 8 7 9 9 8 13 19 9 10 12 21 36 34 32
56 29 52 74 69 50 19 14 9 15 17 13 13 11 11 18 19 18 12 5 15 22 40 8 5 5 5 16 25 8 11 8 6 9 9 6 14 12 19 14 22 28 45 44 38
39 8 54 73 28 9 20 14 16 13 9 6 9 9 14 16 12 14 19 11 22 24 27 28 10 15 22 7 13 22 18 22 12 11 12 4 28 3 11 10 34 44 50 43 37
18 13 62 83 18 11 8 10 11 10 10 7 7 5 5 13 7 11 12 17 23 23 19 17 8 19 10 4 3 17 16 25 25 2 40 12 25 2 4 9 27 44 52 46 37
25 8 20 46 40 17 11 11 9 5 9 9 9 9 10 7 1 12 11 11 26 26 38 28 11 16 27 8 9 14 19 34 37 23 33 38 34 15 10 13 24 41 55 48 40
17 5 14 14 27 15 4 22 25 9 7 14 4 10 13 7 7 9 8 5 5 16 25 16 31 22 36 25 4 9 20 41 42 51 33 52 41 42 21 28 50 56 59 52 43
25 10 11 16 58 29 27 10 33 11 15 8 12 16 12 14 15 12 10 10 13 6 8 6 37 15 38 29 19 34 45 32 41 50 49 51 56 25 25 38 43 59 70 63 53
20 27 13 41 30 29 11 14 16 23 7 15 15 11 11 24 35 43 41 23 9 15 11 10 4 10 38 10 15 30 46 43 43 36 35 42 58 13 13 33 54 65 74 67 59
Wind_Direction_850mb
232 231 233 228 227 228 231 238 238 236 238 241 246 252 257 262 263 262 261 254 246 251 264 276 293 297 347 58 71 78 68 137 218 163 192 19 69 41 14 1 56 57 38 5 358
231 225 225 227 228 230 228 233 240 241 242 243 244 248 254 262 269 266 257 249 248 247 258 271 287 304 132 58 72 87 105 208 216 183 163 31 50 355 350 342 30 106 17 353 340
226 221 225 226 229 230 230 230 232 239 247 247 246 248 250 259 285 258 245 244 242 240 245 254 260 94 119 67 58 108 157 200 246 258 260 119 334 333 356 320 313 322 324 327 328
222 221 225 228 229 230 230 234 230 228 240 248 248 245 241 231 218 166 282 287 252 229 222 226 198 141 110 109 87 101 150 160 214 317 327 321 312 289 250 265 299 303 306 306 312
218 223 228 233 236 234 234 233 234 232 232 237 239 237 218 216 232 189 42 25 203 208 209 203 176 146 140 110 82 107 216 160 259 282 294 283 274 267 259 284 290 290 293 296 297
219 222 225 231 235 234 230 229 225 224 226 230 225 226 214 228 237 216 189 47 107 174 184 183 182 154 120 114 129 140 357 312 286 282 292 262 272 277 68 305 299 299 304 307 302
217 220 226 226 227 223 223 222 220 216 217 230 225 218 217 248 244 233 209 210 115 151 187 181 141 157 139 125 147 94 5 315 263 252 251 241 277 245 284 296 309 312 315 313 297
220 220 222 218 216 207 203 204 211 212 215 225 225 216 233 257 244 240 215 212 196 164 160 189 199 156 129 125 74 93 50 16 292 335 237 157 269 269 266 357 330 321 315 309 302
224 222 213 210 201 197 190 192 205 207 210 221 210 196 252 256 246 234 214 215 214 193 168 164 175 166 167 110 67 256 205 197 315 304 236 172 250 280 307 316 314 309 308 301 297
222 214 207 201 196 196 192 197 200 200 203 212 214 193 241 235 239 228 208 194 188 193 183 166 163 130 121 151 202 191 189 186 225 304 344 280 248 266 288 291 293 295 292 290 287
210 203 202 197 190 184 184 173 164 189 194 185 196 182 256 237 246 212 206 188 165 166 155 185 179 210 208 209 204 104 152 184 226 265 299 257 275 269 283 283 275 280 282 282 285
205 205 200 193 191 192 194 182 187 164 187 216 196 218 237 181 198 204 192 184 196 172 127 153 226 207 195 196 212 253 252 249 282 339 276 298 292 281 262 261 257 266 279 282 291
207 207 202 196 185 192 193 191 175 135 114 219 226 229 247 224 255 208 184 182 174 211 196 195 168 192 173 184 192 208 204 234 247 330 290 325 286 238 281 250 262 268 272 287 298
209 205 199 194 185 188 188 183 177 168 45 235 196 221 215 180 239 220 194 185 207 198 193 236 227 130 152 194 157 208 196 183 112 354 280 33 292 281 248 260 269 284 319 336 333
210 199 191 195 183 182 184 169 155 170 110 211 165 199 190 176 149 182 187 190 167 176 163 216 181 177 177 192 169 238 147 154 169 208 316 202 261 277 151 269 289 348 32 17 11
200 191 184 189 193 192 178 165 156 98 227 180 136 170 160 190 145 144 165 176 186 156 286 206 183 163 192 170 165 154 99 86 98 175 255 212 186 225 196 193 236 139 95 121 131
194 192 187 188 187 182 169 159 159 197 290 189 174 171 181 170 177 161 171 179 166 177 221 147 196 182 162 105 47 171 137 220 237 206 239 312 200 246 260 266 226 233 171 152 143
196 186 192 193 187 178 169 168 212 182 195 236 162 151 184 152 201 175 167 199 228 133 139 195 274 173 184 179 174 187 185 182 206 202 257 79 229 247 220 233 219 229 170 155 148
183 187 191 190 183 179 163 196 207 173 155 145 136 169 181 204 164 187 198 213 200 179 180 169 239 71 232 156 158 171 210 163 24 55 338 229 278 282 251 107 122 135 149 145 143
188 181 195 188 183 178 184 201 203 174 139 130 147 172 169 181 161 187 177 223 213 198 213 149 312 272 223 141 223 164 142 154 191 183 246 270 268 234 258 182 153 149 156 155 151
195 174 196 187 184 187 192 203 189 191 157 144 164 151 173 170 167 187 196 312 217 193 196 137 202 234 145 205 190 172 201 225 153 147 185 257 255 218 229 191 186 178 175 167 160
178 156 177 181 187 158 203 162 158 159 179 134 112 116 157 157 152 182 203 199 212 169 193 198 213 226 215 231 189 217 210 193 200 188 233 204 259 3 238 215 180 180 179 170 166
178 116 176 183 186 200 136 132 174 151 162 131 107 138 173 147 151 187 176 213 170 163 180 174 228 246 251 285 261 221 206 216 226 109 236 214 257 315 90 142 181 169 177 174 167
156 149 179 184 204 186 158 163 137 85 123 112 116 104 106 137 330 176 215 207 203 193 203 205 211 215 236 208 150 204 202 208 210 231 249 236 261 232 203 191 188 179 181 176 178
168 174 159 188 187 186 119 172 179 141 79 145 41 159 149 113 104 165 158 155 160 216 225 221 245 236 253 259 241 235 215 217 219 231 226 251 241 254 220 205 201 191 183 183 185
179 156 152 216 183 181 176 176 179 140 142 216 148 169 161 169 171 175 159 188 208 172 206 223 255 258 261 253 250 255 246 238 227 233 238 252 257 258 272 203 182 190 187 190 193
182 172 89 178 164 172 159 156 168 137 210 180 164 127 187 212 200 216 219 224 232 213 205 201 249 205 255 267 247 250 246 234 234 236 232 239 246 195 206 194 195 193 192 193 195